Fayetteville Regional Grannis Field
KFAY : now visible

Airfield :











YOU CAN JOIN US ON...

 
LOGIN :

Register | Disclaimer

   EN    FR    IT 

 









Legend :    VFR   Marginal VFR   IFR   Intensive IFR   Very Intensive IFR
Visi :
Ceiling :
>= 8 km
>= 3000ft
5 to 8 km
1000 to 3000 ft
1500m to 5 km
500 to 1000 ft
800 to 1500m
200 to 500 ft
< 800m
< 200 ft
Symbols :   Thunderstorms  Fog  Heavy snow  Heavy precipitations  Wind > 20 kt






- Airport Elevation : 189 ft
- IATA code : FAY


KFAY - Fayetteville Regional Grannis Field

CURRENT METAR :
  • 190953Z 00000KT 10SM CLR 21/19 A3010 RMK AO2 SLP186 T02060194

EXPIRED METARs :
  • 190853Z 00000KT 10SM CLR 21/20 A3009 RMK AO2 SLP182 T02110200 55005

TAF KFAY
Valid from the 19 at 09:00 until the 20 at 06:00 UTC


190836Z 1909/2006 00000KT P6SM SKC
TEMPO 1909/1912 5SM BR SCT004 SCT250
FM191200 08003KT 6SM BR SCT008 SCT250
FM191400 09005KT P6SM SCT040 BKN250
KZDC FIR / North America



MET'MAP, your aeronautical weather chart ! - Copyright ORBIFLY December 2007 - Disclaimer

ORBIFLY MET'MAP TEAM :

Programming & Development : Alexandra Zaïnal
Concept & original design : Baudouin d'Aumeries
Assistance for programming : Marc-Olivier Méhu
Technical & hardware support : Manuel Goepfert

Contact : metmap@orbifly.com




SOURCES & CREDITS :

   NOAA       Earth
Advisory